This is the latest recevied weather packets stored in our database for station/object SR9NSK-5. If no packets are shown the sender has not sent any weather packets the latest 1 day(s).
| Time | Temp. | Humidity | Pressure | Rain* | Wind** | Luminosity | Snow |
|---|---|---|---|---|---|---|---|
| 1778077889 | 18.33° C | 53% | 902 hPa | - | - | - | - |
| 1778077649 | 18.33° C | 53% | 902.1 hPa | - | - | - | - |
| 1778077409 | 18.33° C | 53% | 902.1 hPa | - | - | - | - |
| 1778077169 | 18.89° C | 53% | 902 hPa | - | - | - | - |
| 1778075957 | 20.56° C | 51% | 902.1 hPa | - | - | - | - |
| 1778074514 | 20° C | 51% | 902 hPa | - | - | - | - |
| 1778074272 | 20.56° C | 51% | 902 hPa | - | - | - | - |
| 1778074032 | 20.56° C | 51% | 902.1 hPa | - | - | - | - |
| 1778073792 | 20.56° C | 52% | 902.1 hPa | - | - | - | - |
| 1778073552 | 20.56° C | 52% | 902 hPa | - | - | - | - |
| 1778073311 | 20° C | 53% | 902 hPa | - | - | - | - |
| 1778071625 | 19.44° C | 53% | 902.2 hPa | - | - | - | - |
| 1778070422 | 18.89° C | 53% | 902.3 hPa | - | - | - | - |
| 1778069942 | 19.44° C | 54% | 902.4 hPa | - | - | - | - |
| 1778069460 | 18.89° C | 54% | 902.3 hPa | - | - | - | - |
| 1778069220 | 18.89° C | 54% | 902.3 hPa | - | - | - | - |
| 1778068980 | 18.89° C | 54% | 902.2 hPa | - | - | - | - |
| 1778068740 | 18.89° C | 54% | 902.3 hPa | - | - | - | - |
| 1778068018 | 18.89° C | 54% | 902.4 hPa | - | - | - | - |
| 1778066807 | 17.78° C | 56% | 902.3 hPa | - | - | - | - |
| 1778066567 | 18.33° C | 56% | 902.3 hPa | - | - | - | - |
| 1778066327 | 18.89° C | 56% | 902.3 hPa | - | - | - | - |
| 1778065845 | 17.78° C | 56% | 902.3 hPa | - | - | - | - |
| 1778065605 | 17.78° C | 56% | 902.2 hPa | - | - | - | - |
| 1778065365 | 17.78° C | 57% | 902.2 hPa | - | - | - | - |
* Rain since midnight (hover to see other rain measurements)
** Current wind speed in m/s (hover to see current wind gust speed)